[[{"header":{"parameterUnit":"m.s-1","parameterCategory":1,"la1":30.2991,"la2":30.254,"lo1":-89.0895,"lo2":-89.0444,"dy":0.0017,"dx":0.0017,"nx":28,"ny":28,"refTime":"2023-07-29T21:00:00:Z","depth":0,"parameterNumber":2,"parameterNumberName":"U-component_of_WINDS"},"data":[0,0,0,0,0,0,0,0,0,0,0,0,0,0,0,0,0,0,0,0,0,0,0,0,0,0,0,0,0,0,0,0,0,0,0,0,0,0,0,0,0,0,0,0,0,0,0,0,0,0,0,0,0,0,0,0,0,0,-0.4092,-0.4092,0,-0.4041,-0.4041,-0.404,-0.3976,-0.3975,-0.3974,-0.3973,-0.392,-0.392,-0.3919,0,0,0,0,0,0,0,0,0,0,0,0,0,-0.4135,-0.4135,-0.4092,-0.4092,-0.4091,-0.4041,-0.4041,-0.404,-0.3976,-0.3974,-0.3973,-0.3972,-0.392,-0.392,-0.3919,0,0,0,0,0,0,0,0,0,0,0,0,0,-0.4104,-0.4135,-0.4093,-0.4053,-0.4049,-0.4041,-0.4041,-0.404,-0.3976,-0.3974,-0.3973,-0.3971,-0.392,-0.392,-0.3919,-0.3946,0,0,-0.3917,-0.3917,0,0,0,0,0,0,0,0,-0.4106,-0.4102,-0.406,-0.4056,-0.4051,-0.4013,-0.4036,-0.4008,-0.3976,-0.4004,-0.3973,-0.3971,-0.3952,-0.3949,-0.3943,-0.3943,-0.3941,-0.3917,-0.3916,-0.3916,-0.3916,0,0,0,0,0,0,0,-0.4108,-0.4104,-0.4072,-0.4059,-0.4054,-0.4038,-0.4032,-0.4031,-0.3987,-0.4001,-0.3996,-0.3991,-0.395,-0.3943,-0.3941,-0.394,-0.3917,-0.3916,-0.3916,-0.3916,-0.3962,-0.3963,0,0,0,0,0,0,-0.4116,-0.4106,-0.4074,-0.4071,-0.4075,-0.4039,-0.4032,-0.4027,-0.3987,-0.398,-0.3993,-0.3988,-0.3945,-0.3942,-0.3939,-0.3968,-0.3916,-0.3916,-0.3915,-0.396,-0.3962,-0.3964,0,0,0,0,0,0,-0.4117,-0.4114,-0.4076,-0.4087,-0.4081,-0.404,-0.4035,-0.4027,-0.402,-0.3981,-0.3973,-0.3994,-0.3944,-0.394,-0.3945,-0.3965,-0.3915,-0.3915,-0.3958,-0.3961,-0.3963,-0.4027,0,0,0,0,0,0,-0.4119,-0.4114,-0.4124,-0.4088,-0.4081,-0.4083,-0.4036,-0.4027,-0.4019,-0.4014,-0.398,-0.3973,-0.3942,-0.3946,-0.3944,-0.3963,-0.3914,-0.3956,-0.3959,-0.3962,-0.4022,-0.4031,-0.4038,0,0,0,0,0,-0.412,-0.4144,-0.4125,-0.4121,-0.4092,-0.4084,-0.408,-0.4044,-0.4021,-0.4031,-0.4005,-0.3974,-0.3964,-0.3947,-0.3944,-0.3964,-0.3955,-0.3958,-0.3962,-0.4019,-0.4029,-0.4038,0,0,0,0,0,0,-0.4183,-0.4138,-0.4117,-0.4129,-0.4111,-0.4073,-0.4083,-0.4056,-0.4044,-0.4039,-0.3995,-0.3988,-0.3999,-0.3982,-0.3964,-0.3988,-0.3954,-0.3958,-0.3999,-0.4008,-0.4016,-0.402,-0.3914,0,0,0,0,0,-0.4198,-0.4195,-0.4156,-0.4171,-0.4163,-0.4125,-0.412,-0.4095,-0.4074,-0.4066,-0.4041,-0.4022,-0.4015,-0.4011,-0.4001,-0.402,-0.4012,-0.4032,-0.404,-0.4047,-0.405,-0.4059,-0.4068,-0.3976,-0.3976,-0.3976,0,0,-0.4229,-0.4205,-0.4205,-0.4183,-0.4166,-0.4164,-0.4119,-0.4119,-0.4117,-0.4066,-0.4069,-0.4051,-0.4027,-0.4039,-0.4043,-0.4025,-0.4074,-0.4051,-0.4057,-0.4056,-0.4064,-0.4073,-0.408,-0.3978,-0.3978,-0.3977,0,0,-0.4285,-0.4266,-0.4277,-0.4261,-0.4236,-0.4211,-0.4214,-0.418,-0.4166,-0.4169,-0.413,-0.4128,-0.4116,-0.4101,-0.4092,-0.4144,-0.4115,-0.4143,-0.4183,-0.4193,-0.42,-0.4206,-0.4225,-0.4233,-0.4146,-0.4146,-0.4146,0,-0.4327,-0.4323,-0.4285,-0.4288,-0.428,-0.4234,-0.4244,-0.4231,-0.4204,-0.42,-0.418,-0.4165,-0.4145,-0.4154,-0.4167,-0.4161,-0.4163,-0.4146,-0.4202,-0.4208,-0.4213,-0.4231,-0.4238,-0.415,-0.4149,-0.4149,-0.4149,0,-0.4376,-0.4374,-0.4385,-0.4361,-0.4354,-0.4361,-0.4325,-0.4322,-0.4298,-0.4275,-0.4279,-0.4255,-0.4241,-0.4241,-0.4217,-0.4246,-0.4236,-0.421,-0.4175,-0.4226,-0.4242,-0.4249,-0.4155,-0.4153,-0.4152,-0.4151,0,0,-0.4468,-0.4425,-0.4429,-0.4418,-0.4388,-0.4386,-0.4391,-0.4377,-0.4376,-0.436,-0.4363,-0.4355,-0.4331,-0.4321,-0.4295,-0.4304,-0.4348,-0.4277,-0.4275,-0.4291,-0.438,-0.4399,-0.4407,-0.4329,-0.433,-0.4331,-0.4382,0,-0.4519,-0.4524,-0.4492,-0.4506,-0.4504,-0.4462,-0.4466,-0.4449,-0.4428,-0.4424,-0.4401,-0.4396,-0.4365,-0.4358,-0.4365,-0.4341,-0.4365,-0.4337,-0.4331,-0.4332,-0.4338,-0.4416,-0.4436,-0.4485,-0.4388,-0.4389,-0.4389,0,-0.4577,-0.4565,-0.458,-0.455,-0.4548,-0.4553,-0.4538,-0.4534,-0.4514,-0.4498,-0.4488,-0.4459,-0.4462,-0.443,-0.4434,-0.4416,-0.4412,-0.44,-0.4401,-0.4399,-0.4363,-0.4415,-0.45,-0.4507,-0.4399,-0.4398,-0.4397,0,-0.4643,-0.463,-0.4638,-0.463,-0.4595,-0.4599,-0.4585,-0.4563,-0.4558,-0.4545,-0.4541,-0.453,-0.4523,-0.4515,-0.4483,-0.4463,-0.4492,-0.4457,-0.4479,-0.448,-0.4487,-0.4487,-0.4572,-0.4485,-0.4485,-0.4485,-0.4485,0,-0.4702,-0.4713,-0.4667,-0.4671,-0.4683,-0.4645,-0.4658,-0.4639,-0.4621,-0.4621,-0.4584,-0.4585,-0.4544,-0.4541,-0.4516,-0.4524,-0.4522,-0.451,-0.4503,-0.4513,-0.4514,-0.4509,-0.4505,-0.4487,-0.4486,-0.4486,-0.4486,0,-0.4777,-0.4747,-0.4752,-0.4719,-0.4712,-0.4721,-0.4694,-0.4697,-0.4675,-0.4676,-0.4674,-0.4639,-0.4634,-0.4602,-0.459,-0.4573,-0.459,-0.4577,-0.4597,-0.4593,-0.4617,-0.4615,-0.4701,-0.4711,-0.4619,-0.462,-0.4621,0,-0.4816,-0.4824,-0.4793,-0.479,-0.4778,-0.4775,-0.4769,-0.4734,-0.473,-0.4708,-0.4714,-0.4706,-0.4697,-0.4691,-0.4665,-0.4656,-0.4642,-0.4673,-0.464,-0.465,-0.4642,-0.4642,-0.4643,-0.4679,-0.468,-0.4681,-0.4682,0,-0.489,-0.4875,-0.4868,-0.4856,-0.4851,-0.484,-0.4827,-0.4827,-0.4788,-0.4785,-0.478,-0.4773,-0.4761,-0.4754,-0.474,-0.4726,-0.4698,-0.4693,-0.4698,-0.4707,-0.4719,-0.4713,-0.4616,-0.4691,-0.469,-0.4689,-0.4689,-0.4689,-0.4947,-0.4952,-0.4932,-0.4926,-0.4912,-0.4902,-0.4903,-0.4882,-0.4877,-0.4864,-0.4844,-0.4841,-0.4822,-0.4801,-0.4789,-0.4787,-0.4771,-0.4778,-0.4779,-0.4782,-0.4787,-0.472,-0.4785,-0.4785,-0.4784,-0.4784,-0.4784,0,-0.5018,-0.5003,-0.4999,-0.4982,-0.4978,-0.4952,-0.4937,-0.4935,-0.4934,-0.4918,-0.4911,-0.4906,-0.4899,-0.4873,-0.4864,-0.4867,-0.4854,-0.4866,-0.4865,-0.4862,-0.4802,-0.4799,-0.4877,-0.4877,-0.4877,-0.4877,-0.4877,-0.4877,-0.5055,-0.5062,-0.5045,-0.5046,-0.5031,-0.5028,-0.5022,-0.5012,-0.5,-0.4995,-0.499,-0.4973,-0.4954,-0.4943,-0.4936,-0.4929,-0.4927,-0.4943,-0.4932,-0.4876,-0.4867,-0.4858,-0.4855,-0.4943,-0.4943,-0.4992,-0.4993,-0.4993]},{"header":{"parameterUnit":"m.s-1","parameterCategory":1,"la1":30.2991,"la2":30.254,"lo1":-89.0895,"lo2":-89.0444,"dy":0.0017,"dx":0.0017,"nx":28,"ny":28,"refTime":"2023-07-29T21:00:00:Z","depth":0,"parameterNumber":3,"parameterNumberName":"V-component_of_WINDS"},"data":[0,0,0,0,0,0,0,0,0,0,0,0,0,0,0,0,0,0,0,0,0,0,0,0,0,0,0,0,0,0,0,0,0,0,0,0,0,0,0,0,0,0,0,0,0,0,0,0,0,0,0,0,0,0,0,0,0,0,-0.0996,-0.0995,0,-0.0919,-0.0918,-0.0917,-0.0935,-0.0937,-0.0938,-0.094,-0.086,-0.0857,-0.0853,0,0,0,0,0,0,0,0,0,0,0,0,0,-0.1158,-0.1155,-0.0996,-0.0995,-0.0994,-0.0919,-0.0918,-0.0917,-0.0935,-0.0937,-0.0939,-0.094,-0.0861,-0.0857,-0.0853,0,0,0,0,0,0,0,0,0,0,0,0,0,-0.1085,-0.1154,-0.0996,-0.0994,-0.0993,-0.0919,-0.0918,-0.0917,-0.0935,-0.0937,-0.0939,-0.0941,-0.0863,-0.0858,-0.0853,-0.0776,0,0,-0.0837,-0.0834,0,0,0,0,0,0,0,0,-0.1089,-0.1079,-0.0995,-0.0994,-0.0993,-0.0939,-0.0946,-0.087,-0.0934,-0.0957,-0.094,-0.0942,-0.0885,-0.0878,-0.0859,-0.0772,-0.0769,-0.0836,-0.0833,-0.0831,-0.0829,0,0,0,0,0,0,0,-0.1094,-0.1082,-0.0965,-0.0994,-0.0992,-0.0997,-0.0989,-0.0932,-0.0909,-0.0955,-0.0956,-0.0947,-0.0884,-0.0864,-0.0857,-0.0768,-0.0836,-0.0832,-0.0828,-0.0826,-0.062,-0.0617,0,0,0,0,0,0,-0.11,-0.1087,-0.0968,-0.0963,-0.1047,-0.0992,-0.0983,-0.0954,-0.091,-0.0905,-0.0945,-0.0948,-0.0871,-0.0863,-0.0854,-0.0765,-0.0831,-0.0826,-0.0823,-0.0622,-0.0619,-0.0617,0,0,0,0,0,0,-0.1104,-0.1089,-0.0971,-0.1025,-0.101,-0.0987,-0.0954,-0.0951,-0.0931,-0.0902,-0.0898,-0.0928,-0.0873,-0.0861,-0.0796,-0.0763,-0.0824,-0.0819,-0.0625,-0.0621,-0.0618,-0.0585,0,0,0,0,0,0,-0.1108,-0.1091,-0.1061,-0.1024,-0.1007,-0.0914,-0.0952,-0.0948,-0.0922,-0.0925,-0.0885,-0.0881,-0.0874,-0.0804,-0.0791,-0.0757,-0.0815,-0.0628,-0.0623,-0.0619,-0.0589,-0.0581,-0.0574,0,0,0,0,0,-0.1114,-0.1054,-0.1059,-0.1045,-0.097,-0.0912,-0.0902,-0.0896,-0.0919,-0.089,-0.0872,-0.0882,-0.0768,-0.0797,-0.0783,-0.0746,-0.063,-0.0624,-0.0619,-0.0593,-0.0583,-0.0574,0,0,0,0,0,0,-0.1086,-0.1049,-0.1055,-0.0981,-0.095,-0.0915,-0.0878,-0.0885,-0.0846,-0.085,-0.0843,-0.0834,-0.0769,-0.075,-0.0784,-0.0672,-0.0702,-0.0694,-0.0687,-0.0677,-0.067,-0.0677,-0.081,0,0,0,0,0,-0.1071,-0.1028,-0.0997,-0.0935,-0.0919,-0.0901,-0.0876,-0.0873,-0.0841,-0.0827,-0.0805,-0.0773,-0.073,-0.0702,-0.0661,-0.0586,-0.0579,-0.0553,-0.0546,-0.054,-0.0534,-0.0496,-0.0486,-0.0599,-0.0599,-0.0599,0,0,-0.104,-0.1015,-0.0987,-0.0929,-0.0904,-0.086,-0.089,-0.0841,-0.0809,-0.082,-0.0759,-0.0741,-0.0704,-0.0635,-0.0604,-0.0618,-0.05,-0.0533,-0.0528,-0.0525,-0.049,-0.0479,-0.047,-0.0596,-0.0596,-0.0597,0,0,-0.0962,-0.0937,-0.0885,-0.086,-0.0824,-0.0812,-0.08,-0.0765,-0.0754,-0.0692,-0.0701,-0.0662,-0.0587,-0.0562,-0.054,-0.0455,-0.0464,-0.0441,-0.0403,-0.0366,-0.0358,-0.035,-0.0323,-0.0313,-0.0434,-0.0434,-0.0434,0,-0.0929,-0.0863,-0.0856,-0.0808,-0.0783,-0.0792,-0.074,-0.0716,-0.0667,-0.0651,-0.0667,-0.0576,-0.0552,-0.0479,-0.0459,-0.0439,-0.0426,-0.0447,-0.0359,-0.0351,-0.0344,-0.0319,-0.0308,-0.0432,-0.0432,-0.0433,-0.0433,0,-0.0825,-0.0779,-0.0741,-0.0697,-0.0667,-0.0616,-0.0603,-0.0574,-0.0575,-0.0562,-0.0501,-0.0472,-0.0427,-0.0409,-0.0407,-0.0336,-0.0347,-0.0361,-0.0392,-0.0331,-0.0307,-0.0297,-0.0429,-0.043,-0.043,-0.0431,0,0,-0.0728,-0.0682,-0.0669,-0.065,-0.0611,-0.0576,-0.0526,-0.0483,-0.046,-0.0426,-0.0387,-0.0324,-0.0338,-0.0313,-0.0309,-0.0277,-0.0216,-0.0295,-0.0294,-0.0285,-0.014,-0.0133,-0.0121,-0.0221,-0.0219,-0.0217,-0.0145,0,-0.065,-0.0565,-0.0559,-0.0482,-0.0442,-0.045,-0.0408,-0.038,-0.0367,-0.0331,-0.0316,-0.0274,-0.0293,-0.0278,-0.0246,-0.023,-0.0188,-0.0235,-0.0186,-0.0185,-0.0199,-0.0108,-0.0099,-0.0032,-0.0135,-0.0133,-0.0132,0,-0.0548,-0.0514,-0.0433,-0.0404,-0.0386,-0.0348,-0.031,-0.0275,-0.0244,-0.0237,-0.0209,-0.0211,-0.0162,-0.0192,-0.0126,-0.0158,-0.0138,-0.0127,-0.0124,-0.0122,-0.0157,-0.0107,-0.001,-0.0002,-0.0117,-0.0118,-0.0119,0,-0.0491,-0.0423,-0.0368,-0.0351,-0.0314,-0.0288,-0.0271,-0.0242,-0.0217,-0.0183,-0.0168,-0.0128,-0.0107,-0.0077,-0.0068,-0.009,-0.0003,-0.0032,0.0002,0.0002,0.0019,0.0017,0.0117,0.0038,0.0038,0.0038,0.0037,0,-0.0406,-0.0358,-0.0343,-0.0309,-0.0256,-0.0249,-0.0196,-0.0181,-0.0155,-0.012,-0.0122,-0.0089,-0.0077,-0.0042,-0.0034,0.0017,0.0028,0.0034,0.0034,0.0032,0.0031,0.0043,0.0037,0.004,0.004,0.0039,0.0039,0,-0.0334,-0.0322,-0.0263,-0.0233,-0.0224,-0.0186,-0.0161,-0.0129,-0.0117,-0.0072,-0.0061,-0.0042,-0.0,0.0012,0.0063,0.0068,0.0127,0.0126,0.0116,0.0115,0.0147,0.0142,0.0255,0.0269,0.0185,0.0185,0.0186,0,-0.0283,-0.0246,-0.0213,-0.019,-0.0173,-0.0135,-0.0111,-0.0103,-0.0077,-0.0041,-0.0014,0.0027,0.0059,0.0126,0.0144,0.0181,0.0179,0.0216,0.0184,0.0179,0.0175,0.0171,0.0173,0.0221,0.0222,0.0222,0.0223,0,-0.0195,-0.0191,-0.0157,-0.0121,-0.0092,-0.0063,-0.0035,-0.0015,-0.0003,0.0025,0.0066,0.0092,0.0142,0.0181,0.0219,0.0236,0.0231,0.0233,0.0242,0.0238,0.0229,0.023,0.0128,0.023,0.0229,0.0228,0.0228,0.0228,-0.0134,-0.0104,-0.0077,-0.0039,-0.0017,0.0008,0.0038,0.0053,0.0088,0.0128,0.0132,0.0175,0.0203,0.0254,0.0273,0.0307,0.0296,0.031,0.0313,0.0315,0.0316,0.0226,0.0314,0.0314,0.0314,0.0314,0.0314,0,-0.005,-0.0033,0.0002,0.0039,0.0069,0.0061,0.0091,0.0116,0.0154,0.0181,0.0212,0.0258,0.0296,0.0317,0.0354,0.0377,0.0375,0.0386,0.0383,0.0386,0.0326,0.0312,0.0386,0.0386,0.0386,0.0386,0.0386,0.0386,-0.0003,0.0047,0.0054,0.0114,0.013,0.0172,0.0189,0.0212,0.0233,0.0284,0.0315,0.0328,0.0351,0.039,0.0423,0.0429,0.0441,0.0453,0.0456,0.0398,0.0391,0.0383,0.037,0.0456,0.0456,0.0513,0.0513,0.0514]}]]